Ostend, Belgium

4:17 PM CEST on April 25, 2018 (GMT +0200)
Ostend

Weather History for EBOS - November, 2012

Change the Weather History Date:

Wednesday, November 21, 2012

  Actual Average Record
Temperature  
Mean Temperature 46 °F -  
Max Temperature 50 °F 45 °F 57 °F (2016)
Min Temperature 41 °F 36 °F 24 °F (1998)
Degree Days  
Heating Degree Days 20    
Moisture  
Dew Point 40 °F    
Average Humidity 83    
Maximum Humidity 93    
Minimum Humidity 69    
Precipitation  
Precipitation 0.04 in - - ()
Sea Level Pressure  
Sea Level Pressure 29.85 in    
Wind  
Wind Speed 15 mph ()    
Max Wind Speed 34 mph    
Max Gust Speed 48 mph    
Visibility 5.5 miles    
Events Rain    
Averages and records for this station are not official NWS values.
T = Trace of Precipitation, MM = Missing Value Source: Averaged Metar Reports

Daily Weather History Graph

Daily Weather History Graph

Search for Another Location

Airport or City:

Astronomy

Nov. 21, 2012 Rise Set
Actual Time 8:15 AM CET 4:52 PM CET
Civil Twilight 7:38 AM CET 5:30 PM CET
Nautical Twilight 6:57 AM CET 6:11 PM CET
Astronomical Twilight 6:17 AM CET 6:50 PM CET
Moon 1:41 PM CET (11/21) 12:34 AM CET (11/21)
Length of Visible Light 9h 51m
Length of Day
8h 36m
First Quarter, 59% of the Moon is Illuminated
Nov 21
First Quarter
Nov 28
Full
Dec 6
Last Quarter
Dec 13
New
Dec 20
First Quarter

Hourly Weather History & Observations

Time (CET) Temp. Windchill Dew Point Humidity Pressure Visibility Wind Dir Wind Speed Gust Speed Precip Events Conditions
12:20 AM 44.6 °F 38.1 °F 41.0 °F 87% 29.92 in 5.0 mi South 13.8 mph - N/A   Scattered Clouds
12:50 AM 44.6 °F 38.4 °F 41.0 °F 87% 29.92 in 4.3 mi SSE 12.7 mph - N/A   Scattered Clouds
1:00 AM 45 °F - 41 °F 82% 29.93 in 4 mi SSE 13.4 mph - -   Partly Cloudy
1:20 AM 44.6 °F 38.4 °F 41.0 °F 87% 29.89 in 4.3 mi SSE 12.7 mph - N/A   Mostly Cloudy
1:50 AM 44.6 °F 39.2 °F 41.0 °F 87% 29.89 in 3.7 mi SSE 10.4 mph - N/A   Mostly Cloudy
2:20 AM 42.8 °F 35.8 °F 41.0 °F 93% 29.89 in 3.7 mi South 13.8 mph - N/A   Mostly Cloudy
2:50 AM 42.8 °F 36.2 °F 41.0 °F 93% 29.89 in 3.7 mi SSE 12.7 mph - N/A   Mostly Cloudy
3:20 AM 42.8 °F 36.2 °F 39.2 °F 87% 29.86 in 3.7 mi SSE 12.7 mph - N/A   Mostly Cloudy
3:50 AM 42.8 °F 36.2 °F 39.2 °F 87% 29.86 in 3.7 mi SSE 12.7 mph - N/A   Mostly Cloudy
4:00 AM 43 °F - 40 °F 85% 29.87 in 4 mi SSE 13.4 mph - -   Mostly Cloudy
4:20 AM 42.8 °F 36.2 °F 39.2 °F 87% 29.86 in 3.7 mi SSE 12.7 mph - N/A   Mostly Cloudy
4:50 AM 42.8 °F 35.8 °F 39.2 °F 87% 29.83 in 3.1 mi SSE 13.8 mph - N/A   Mostly Cloudy
5:20 AM 41.0 °F 33.1 °F 39.2 °F 93% 29.83 in 3.1 mi SSE 15.0 mph - N/A   Mostly Cloudy
5:50 AM 42.8 °F 35.4 °F 39.2 °F 87% 29.83 in 3.1 mi SE 15.0 mph - N/A   Mostly Cloudy
6:20 AM 42.8 °F 34.8 °F 39.2 °F 87% 29.80 in 3.7 mi SSE 17.3 mph - N/A   Scattered Clouds
6:50 AM 42.8 °F 36.2 °F 39.2 °F 87% 29.80 in 3.7 mi SE 12.7 mph - N/A   Partly Cloudy
7:00 AM 42 °F - 39 °F 83% 29.81 in 4 mi SE 13.4 mph - -   Scattered Clouds
7:20 AM 42.8 °F 36.2 °F 39.2 °F 87% 29.77 in 3.7 mi SE 12.7 mph - N/A   Partly Cloudy
7:50 AM 42.8 °F 35.1 °F 37.4 °F 81% 29.80 in 5.6 mi SSE 16.1 mph - N/A   Partly Cloudy
8:20 AM 42.8 °F 35.8 °F 37.4 °F 81% 29.80 in 5.6 mi SSE 13.8 mph - N/A   Partly Cloudy
8:50 AM 42.8 °F 35.8 °F 37.4 °F 81% 29.80 in 5.6 mi SSE 13.8 mph - N/A   Partly Cloudy
9:20 AM 42.8 °F 35.1 °F 37.4 °F 81% 29.80 in 5.6 mi SSE 16.1 mph - N/A   Partly Cloudy
9:50 AM 42.8 °F 35.4 °F 37.4 °F 81% 29.77 in - SSE 15.0 mph - N/A   Clear
10:00 AM 42 °F - 38 °F 79% 29.80 in 7 mi SSE 15.7 mph - -   Overcast
10:20 AM 42.8 °F 35.1 °F 37.4 °F 81% 29.77 in 6.2 mi SSE 16.1 mph - N/A   Partly Cloudy
10:50 AM 42.8 °F 34.5 °F 37.4 °F 81% 29.80 in 6.2 mi South 18.4 mph - N/A   Partly Cloudy
11:20 AM 42.8 °F 34.8 °F 37.4 °F 81% 29.80 in 6.2 mi South 17.3 mph - N/A   Partly Cloudy
11:50 AM 42.8 °F 35.1 °F 37.4 °F 81% 29.77 in 5.6 mi South 16.1 mph - N/A Rain Light Rain
12:20 PM 42.8 °F 35.4 °F 39.2 °F 87% 29.77 in 5.0 mi South 15.0 mph - N/A Rain Light Rain
12:50 PM 42.8 °F 34.8 °F 39.2 °F 87% 29.77 in 5.0 mi South 17.3 mph - N/A Rain Light Rain
1:00 PM 43 °F - 40 °F 84% 29.78 in 5 mi South 15.7 mph - - Rain Light Rain
1:20 PM 42.8 °F 34.8 °F 39.2 °F 87% 29.77 in 5.0 mi South 17.3 mph - N/A Rain Light Rain
1:50 PM 44.6 °F 36.9 °F 41.0 °F 87% 29.77 in 6.2 mi South 18.4 mph - N/A Rain Light Rain
2:20 PM 44.6 °F 36.9 °F 41.0 °F 87% 29.77 in 6.2 mi South 18.4 mph - N/A Rain Light Rain
2:50 PM 46.4 °F 39.2 °F 42.8 °F 87% 29.77 in 6.2 mi South 18.4 mph - N/A   Mostly Cloudy
3:20 PM 46.4 °F 39.2 °F 42.8 °F 87% 29.74 in 6.2 mi South 18.4 mph - N/A   Mostly Cloudy
3:50 PM 48.2 °F - 42.8 °F 82% 29.74 in 6.2 mi South 19.6 mph - N/A   Mostly Cloudy
4:00 PM 47 °F - 44 °F 84% 29.76 in 8 mi South 17.9 mph - -   Partly Cloudy
4:20 PM 48.2 °F - 44.6 °F 87% 29.74 in 6.2 mi South 18.4 mph - N/A   Mostly Cloudy
4:50 PM 50.0 °F - 42.8 °F 76% 29.77 in 6.2 mi SW 26.5 mph 38.0 mph N/A   Mostly Cloudy
5:20 PM 50.0 °F - 41.0 °F 71% 29.77 in 6.2 mi SW 27.6 mph 39.1 mph N/A   Mostly Cloudy
5:50 PM 50.0 °F - 41.0 °F 71% 29.80 in 6.2 mi WSW 25.3 mph 39.1 mph N/A   Mostly Cloudy
6:20 PM 50.0 °F - 41.0 °F 71% 29.83 in 6.2 mi WSW 31.1 mph 48.3 mph N/A   Mostly Cloudy
6:50 PM 50.0 °F - 42.8 °F 76% 29.86 in 6.2 mi WSW 33.4 mph 46.0 mph N/A   Mostly Cloudy
7:00 PM 49 °F - 42 °F 70% 29.86 in 12 mi WSW 33.6 mph - -   Partly Cloudy
7:20 PM 48.2 °F - 42.8 °F 82% 29.89 in 6.2 mi WSW 28.8 mph 41.4 mph N/A   Mostly Cloudy
7:50 PM 48.2 °F - 42.8 °F 82% 29.92 in 6.2 mi WSW 25.3 mph 36.8 mph N/A   Mostly Cloudy
8:20 PM 48.2 °F - 41.0 °F 76% 29.92 in 6.2 mi WSW 25.3 mph - N/A   Mostly Cloudy
8:50 PM 48.2 °F - 42.8 °F 82% 29.95 in 6.2 mi West 24.2 mph - N/A   Mostly Cloudy
9:20 PM 48.2 °F - 42.8 °F 82% 29.98 in 6.2 mi West 21.9 mph - N/A   Mostly Cloudy
9:50 PM 48.2 °F - 42.8 °F 82% 30.01 in 6.2 mi WSW 20.7 mph - N/A   Mostly Cloudy
10:00 PM 49 °F - 42 °F 69% 30.01 in 12 mi WSW 20.1 mph - -   Mostly Cloudy
10:20 PM 48.2 °F - 41.0 °F 76% 30.01 in 6.2 mi WSW 16.1 mph - N/A   Scattered Clouds
10:50 PM 48.2 °F - 42.8 °F 82% 30.04 in 6.2 mi WSW 16.1 mph - N/A   Scattered Clouds
11:20 PM 48.2 °F - 42.8 °F 82% 30.04 in 6.2 mi WSW 13.8 mph - N/A   Scattered Clouds
11:50 PM 42.8 °F 37.5 °F 39.2 °F 87% 30.06 in 6.2 mi SSW 9.2 mph - N/A   Scattered Clouds